SHIJIAN-29B (SJ-29B)

Last updated on Sun Apr 12 2026 00:02:57 GMT+0000 (Coordinated Universal Time)

1 67403U 25315C 26101.78827045 -.00000066 00000+0 00000+0 0 9998 2 67403 3.2268 96.7623 0005959 332.7330 127.7003 1.00275039 1025
UTC large
Height (km)
Speed (km/s)
/
Latitude / Longitude
Inclination (degrees)
Orbital Period (minutes)
Azimuth
Elevation
Range (km)
Doppler Factor

Next 0 passes for location: London (51.5072 / 0.1276)

Sorry there are no passes over London.
SHIJIAN-29B (SJ-29B)